Regional Weather Roundup
Issued by NWS

Home | Current Version | Previous Version | Text Only | Print | Product List | Glossary Off
Versions: 1 2 3 4 5 6 7 8 9 10 11 12 13 14 15 16 17 18 19 20 21 22 23 24 25 26 27 28 29 30 31 32 33 34 35 36 37 38 39 40 41 42 43 44 45 46 47 48 49 50

902
ASUS45 KCYS 200210
RWRWY

WYOMING REGIONAL WEATHER ROUNDUP
NATIONAL WEATHER SERVICE CHEYENNE WY
700 PM MST MON FEB 19 2018

NOTE:  "FAIR" INDICATES FEW OR NO CLOUDS BELOW 12,000 FEET
WITH NO SIGNIFICANT WEATHER AND/OR OBSTRUCTIONS TO VISIBILITY.

WYZ001-200300-
YELLOWSTONE NATIONAL PARK

CITY           SKY/WX    TMP DP  RH WIND       PRES   REMARKS
LK YELLOWSTONE   N/A     -3  -9  75 CALM      29.54R
W YELLOWSTONE  NOT AVBL

$$
WYZ002>013-054>058-071-098>099-200300-
NORTHERN WYOMING

CITY           SKY/WX    TMP DP  RH WIND       PRES   REMARKS
JACKSON        FLURRIES  14   5  67 E5        29.54R WCI   6
CODY           FLURRIES  -5 -11  75 N10       29.84R WCI -23
GREYBULL       CLOUDY     1  -3  83 NW8       29.92R FOG     WCI -13
WORLAND        CLOUDY    -1  -5  82 N5        29.91R FOG     WCI -11
SHERIDAN       CLOUDY    -1  -6  79 NW10      29.93S HAZE    WCI -17
BUFFALO        CLOUDY    -5 -10  79 NW12      29.80F WCI -23
GILLETTE       CLOUDY    -3  -9  75 N14       29.85R HAZE    WCI -22
HULETT         LGT SNOW  -2  -8  78 MISG      29.88S
NEWCASTLE      LGT SNOW   1  -4  78 CALM      29.85R

$$
WYZ014>020-022>026-101>103-200300-
CENTRAL WYOMING

CITY           SKY/WX    TMP DP  RH WIND       PRES   REMARKS
BIG PINEY      LGT SNOW   4   0  83 S9        29.56R FOG     WCI -10
PINEDALE       LGT SNOW   3   0  85 SE8       29.57R WCI -10
DUBOIS         NOT AVBL
LANDER         CLOUDY    -1  -5  82 NE3       29.72R FOG
RIVERTON       CLOUDY    -2  -8  76 N6        29.74R WCI -14
CASPER         FLURRIES  -3  -7  82 NE9       29.76R WCI -19
DOUGLAS        LGT SNOW  -3  -7  82 N3        29.78R FOG

$$
WYZ021-027>030-104>119-200300-
SOUTHERN WYOMING

CITY           SKY/WX    TMP DP  RH WIND       PRES   REMARKS
EVANSTON       CLOUDY    10   7  87 SW9       29.55R WCI  -3
ROCK SPRINGS   LGT SNOW  -1 -10  65 E16       29.60R WCI -21
DIXON          LGT SNOW   5  -1  78 NW7       29.59R WCI  -7
RAWLINS        CLOUDY    -6 -13  71 CALM      29.59R
SARATOGA       LGT SNOW  -4  -8  84 NW10      29.56R WCI -21
LARAMIE        LGT SNOW  -5  -8  87 NW16      29.46R FOG     WCI -27
CHEYENNE       LGT SNOW  -1  -5  82 NE9       29.58S VSB 1   WCI -16
TORRINGTON     LGT SNOW   0  -5  79 N14       29.80R WCI -19
PINE BLUFFS    CLOUDY     1  -4  78 MISG      29.69R VSB 1

$$




USA.gov is the U.S. government's official web portal to all federal, state and local government web resources and services.